This is the latest recevied weather packets stored in our database for station/object OK2JF-6. If no packets are shown the sender has not sent any weather packets the latest 10 day(s).
| Time | Temp. | Humidity | Pressure | Rain* | Wind** | Luminosity | Snow |
|---|---|---|---|---|---|---|---|
| 1777209063 | 10.56° C | 44% | 1093.9 hPa | 0 mm | - | 361 W/m² | - |
| 1777208583 | 10.56° C | 44% | 1094.4 hPa | 0 mm | - | 352 W/m² | - |
| 1777207683 | 10.56° C | 44% | 1094.4 hPa | 0 mm | - | 397 W/m² | - |
| 1777206737 | 10.56° C | 44% | 1094.3 hPa | 0 mm | - | 319 W/m² | - |
| 1777206557 | 10.56° C | 46% | 1094.1 hPa | 0 mm | - | 424 W/m² | - |
| 1777206543 | 10.56° C | 46% | 1094.1 hPa | 0 mm | - | 424 W/m² | - |
| 1777206258 | 10.56° C | 43% | 1093.8 hPa | 0 mm | - | 176 W/m² | - |
| 1777206003 | 10.56° C | 42% | 1094 hPa | 0 mm | - | 50 W/m² | - |
| 1777204263 | 10.56° C | 45% | 1093.7 hPa | 0 mm | - | 475 W/m² | - |
| 1777203783 | 10.56° C | 44% | 1094.1 hPa | 0 mm | - | 472 W/m² | - |
| 1777203663 | 10.56° C | 44% | 1094 hPa | 0 mm | - | 469 W/m² | - |
| 1777203543 | 10.56° C | 43% | 1093.8 hPa | 0 mm | - | 481 W/m² | - |
| 1777203364 | 10.56° C | 42% | 1094 hPa | 0 mm | - | 496 W/m² | - |
| 1777203303 | 10.56° C | 42% | 1094 hPa | 0 mm | - | 494 W/m² | - |
| 1777203137 | 11.11° C | 42% | 1094.1 hPa | 0 mm | - | 485 W/m² | - |
| 1777202883 | 11.11° C | 43% | 1094.1 hPa | 0 mm | - | 486 W/m² | - |
| 1777202343 | 11.67° C | 42% | 1094 hPa | 0 mm | - | 501 W/m² | - |
| 1777202185 | 11.67° C | 42% | 1094.4 hPa | 0 mm | - | 521 W/m² | - |
| 1777202057 | 11.67° C | 43% | 1093.9 hPa | 0 mm | - | 520 W/m² | - |
| 1777201983 | 11.67° C | 42% | 1094.1 hPa | 0 mm | - | 534 W/m² | - |
| 1777201323 | 10.56° C | 42% | 1093.9 hPa | 0 mm | - | 556 W/m² | - |
| 1777200723 | 11.67° C | 44% | 1093.8 hPa | 0 mm | - | 198 W/m² | - |
| 1777200603 | 11.11° C | 44% | 1093.9 hPa | 0 mm | - | 347 W/m² | - |
| 1777200543 | 11.11° C | 44% | 1094 hPa | 0 mm | - | 363 W/m² | - |
| 1777200303 | 11.11° C | 40% | 1093.8 hPa | 0 mm | - | 539 W/m² | - |
* Rain latest hour (hover to see other rain measurements)
** Current wind speed in m/s (hover to see current wind gust speed)